SLSA4: ILLINOIS RIVER AT HIGHWAY 16 BRIDGE NR SILOAM SPRINGS 4SE

                                SHEF ID:       SLSA4     Illinois River at Hwy. 16 near S
STATION TYPE:

PRECIP STAGE RIV-FLOW BAT-LOAD
in ft cfs volt
Ccp-Rev Ccp-Rev Ccp-Rev Ccp-Rev
(America/Chicago)
04/30 00:00 0.00 8.39 1496 12.54
04/30 01:00 0.00 8.34 1449 12.51
04/30 02:00 0.00 8.30 1412 12.48
04/30 03:00 0.01 8.25 1484 12.45
04/30 04:00 0.00 8.20 1435 12.40
04/30 05:00 0.00 8.16 1396 12.40
04/30 06:00 0.00 8.13 1367 12.37
04/30 07:00 0.00 8.10 1339 12.34
04/30 08:00 0.00 8.07 1310 12.36
04/30 09:00 0.00 8.03 1274 12.63
04/30 10:00 0.00 8.00 1247 13.48
04/30 11:00 0.00 7.97 1220 13.64
04/30 12:00 0.00 7.94 1193 13.54
04/30 13:00 0.00 7.92 1176 13.36
04/30 14:00 0.00 7.89 1150 13.19
04/30 15:00 0.00 7.86 1125 13.11
04/30 16:00 0.00 7.84 1108 13.03
04/30 17:00 0.00 7.82 1092 12.96
04/30 18:00 0.00 7.80 1075 12.94
04/30 19:00 0.00 7.77 1051 12.88
04/30 20:00 0.00 7.76 1043 12.85
04/30 21:00 0.00 7.75 1035 12.69
04/30 22:00 0.00 7.74 1027 12.62
04/30 23:00 0.00 7.72 1011 12.58
Data processed at Fri 01May2026 04:14 GMT

NOTICE: If you are parsing this page

Please convert to using our Data API. Starting early 2026 we will be migrating to: https://water.usace.army.mil with modern pages rendered in JavaScript. When this migration completes you will no longer be able to scrape this page! CWMSDataAPI (CDA)

Timeseries IDs (TSIDs)

TSIDs used from left to right in the data table
SILS.Precip-Inc.Total.1Hour.1Hour.Ccp-Rev
SILS.Stage.Inst.1Hour.0.Ccp-Rev
SILS.Flow.Inst.1Hour.0.Ccp-Rev
SILS.Volt-Battery Load.Inst.1Hour.0.Ccp-Rev

                            

All information presented herein is the property of the government of the United States of America and may be revised or deleted at any time without prior notice. Dissemination of this information without the expressed written consent of the Public Affairs Office, Tulsa District U.S. Army Corps of Engineers is strictly prohibited. These data are gathered electronically and, as presented, have NOT undergone any form of quality control. These data are NOT guaranteed to be valid or correct.